EN

Hourly Weather Abaete

Today, 4 December, Friday

Time Temperature Precipitation Wind Pressure Humidity
00:00 +24°C° 0 mm 1 mps 707 mmHg 78%
01:00 +24°C° 0 mm 1 mps 706 mmHg 79%
02:00 +24°C° 0 mm 1 mps 706 mmHg 81%
03:00 +22°C° 0 mm 0 mps 706 mmHg 82%
04:00 +22°C° 0 mm 0 mps 706 mmHg 82%
05:00 +22°C° 0 mm 0 mps 706 mmHg 83%
06:00 +22°C° 0 mm 0 mps 707 mmHg 84%
07:00 +24°C° 0 mm 0 mps 707 mmHg 77%
08:00 +26°C° 0 mm 0 mps 708 mmHg 70%
09:00 +30°C° 0 mm 1 mps 708 mmHg 60%
10:00 +31°C° 0 mm 1 mps 708 mmHg 56%
11:00 +32°C° 0 mm 1 mps 708 mmHg 52%
12:00 +34°C° 0 mm 1 mps 708 mmHg 48%
13:00 +33°C° 0 mm 1 mps 707 mmHg 49%
14:00 +33°C° 0 mm 1 mps 706 mmHg 50%
15:00 +33°C° 0 mm 1 mps 706 mmHg 50%
16:00 +32°C° 0 mm 1 mps 705 mmHg 55%
17:00 +31°C° 0 mm 1 mps 705 mmHg 60%
18:00 +30°C° 0 mm 1 mps 705 mmHg 65%
19:00 +29°C° 0 mm 1 mps 705 mmHg 67%
20:00 +28°C° 0 mm 1 mps 706 mmHg 68%
21:00 +27°C° 0 mm 1 mps 706 mmHg 69%
22:00 +26°C° 0.1 mm 1 mps 706 mmHg 72%
23:00 +26°C° 0.1 mm 1 mps 706 mmHg 75%

Tomorrow, 5 December, Saturday

Time Temperature Precipitation Wind Pressure Humidity
00:00 +25°C° 0.1 mm 1 mps 706 mmHg 78%
01:00 +25°C° 0.2 mm 1 mps 706 mmHg 81%
02:00 +24°C° 0.2 mm 2 mps 706 mmHg 83%
03:00 +24°C° 0.2 mm 2 mps 705 mmHg 86%
04:00 +23°C° 0.1 mm 2 mps 706 mmHg 87%
05:00 +23°C° 0.1 mm 2 mps 706 mmHg 88%
06:00 +23°C° 0.1 mm 1 mps 706 mmHg 89%
07:00 +25°C° 0 mm 2 mps 707 mmHg 82%
08:00 +27°C° 0 mm 2 mps 707 mmHg 75%
09:00 +29°C° 0 mm 2 mps 708 mmHg 68%
10:00 +30°C° 0 mm 2 mps 707 mmHg 63%
11:00 +32°C° 0 mm 2 mps 707 mmHg 57%
12:00 +34°C° 0 mm 2 mps 707 mmHg 51%
13:00 +34°C° 0 mm 2 mps 706 mmHg 51%
14:00 +34°C° 0 mm 2 mps 706 mmHg 50%
15:00 +35°C° 0 mm 2 mps 705 mmHg 50%
16:00 +32°C° 0.3 mm 2 mps 705 mmHg 57%
17:00 +30°C° 0.3 mm 2 mps 704 mmHg 65%
18:00 +28°C° 0.3 mm 2 mps 704 mmHg 72%
19:00 +27°C° 1 mm 2 mps 704 mmHg 77%
20:00 +26°C° 1 mm 2 mps 705 mmHg 82%
21:00 +25°C° 1 mm 2 mps 705 mmHg 87%
22:00 +25°C° 2.1 mm 2 mps 705 mmHg 88%
23:00 +25°C° 2.1 mm 1 mps 706 mmHg 89%

Day after tomorrow, 6 December, Sunday

Time Temperature Precipitation Wind Pressure Humidity
00:00 +25°C° 2.1 mm 1 mps 706 mmHg 90%
01:00 +24°C° 1.2 mm 1 mps 705 mmHg 91%
02:00 +24°C° 1.2 mm 1 mps 705 mmHg 92%
03:00 +24°C° 1.2 mm 1 mps 705 mmHg 93%
04:00 +22°C° 0.8 mm 0 mps 705 mmHg 93%
05:00 +22°C° 0.8 mm 0 mps 705 mmHg 93%
06:00 +22°C° 0.8 mm 0 mps 705 mmHg 93%
07:00 +25°C° 0.6 mm 1 mps 706 mmHg 89%
08:00 +26°C° 0.6 mm 1 mps 706 mmHg 85%
09:00 +26°C° 0.6 mm 1 mps 706 mmHg 82%
10:00 +27°C° 0.4 mm 1 mps 706 mmHg 77%
11:00 +28°C° 0.4 mm 2 mps 706 mmHg 73%
12:00 +29°C° 0.4 mm 2 mps 706 mmHg 69%
13:00 +30°C° 0.2 mm 2 mps 705 mmHg 68%
14:00 +30°C° 0.2 mm 1 mps 704 mmHg 67%
15:00 +30°C° 0.2 mm 1 mps 704 mmHg 66%
16:00 +29°C° 2.5 mm 1 mps 703 mmHg 72%
17:00 +28°C° 2.5 mm 1 mps 703 mmHg 77%
18:00 +25°C° 2.5 mm 0 mps 703 mmHg 82%
19:00 +27°C° 3.4 mm 1 mps 703 mmHg 83%
20:00 +26°C° 3.4 mm 2 mps 704 mmHg 84%
21:00 +25°C° 3.4 mm 4 mps 704 mmHg 85%
22:00 +25°C° 1.7 mm 3 mps 704 mmHg 87%
23:00 +25°C° 1.7 mm 2 mps 704 mmHg 90%

7 December, Monday

Time Temperature Precipitation Wind Pressure Humidity
00:00 +24°C° 1.7 mm 1 mps 704 mmHg 92%
01:00 +24°C° 1.6 mm 1 mps 704 mmHg 92%
02:00 +24°C° 1.6 mm 1 mps 704 mmHg 92%
03:00 +24°C° 1.6 mm 1 mps 704 mmHg 92%
04:00 +24°C° 1.2 mm 1 mps 704 mmHg 92%
05:00 +24°C° 1.2 mm 2 mps 704 mmHg 92%
06:00 +24°C° 1.2 mm 2 mps 705 mmHg 92%
07:00 +25°C° 1.1 mm 2 mps 705 mmHg 89%
08:00 +25°C° 1.1 mm 3 mps 705 mmHg 86%
09:00 +26°C° 1.1 mm 4 mps 706 mmHg 83%
10:00 +27°C° 2.3 mm 3 mps 705 mmHg 82%
11:00 +28°C° 2.3 mm 3 mps 705 mmHg 80%
12:00 +28°C° 2.3 mm 3 mps 705 mmHg 79%
13:00 +28°C° 3.6 mm 2 mps 704 mmHg 81%
14:00 +27°C° 3.6 mm 2 mps 704 mmHg 83%
15:00 +27°C° 3.6 mm 2 mps 703 mmHg 85%
16:00 +26°C° 0.4 mm 2 mps 703 mmHg 87%
17:00 +26°C° 0.4 mm 1 mps 703 mmHg 88%
18:00 +25°C° 0.4 mm 1 mps 703 mmHg 90%
19:00 +25°C° 0.2 mm 1 mps 704 mmHg 90%
20:00 +25°C° 0.2 mm 1 mps 704 mmHg 91%
21:00 +22°C° 0.2 mm 0 mps 705 mmHg 92%
22:00 +24°C° 0.1 mm 1 mps 705 mmHg 92%
23:00 +24°C° 0.1 mm 1 mps 704 mmHg 92%

8 December, Tuesday

Time Temperature Precipitation Wind Pressure Humidity
00:00 +24°C° 0.1 mm 1 mps 704 mmHg 92%
01:00 +23°C° 0 mm 1 mps 704 mmHg 92%
02:00 +23°C° 0 mm 1 mps 704 mmHg 93%
03:00 +23°C° 0 mm 1 mps 704 mmHg 93%
04:00 +23°C° 0.1 mm 1 mps 704 mmHg 93%
05:00 +23°C° 0.1 mm 1 mps 704 mmHg 93%
06:00 +23°C° 0.1 mm 1 mps 704 mmHg 93%
07:00 +24°C° 0.3 mm 2 mps 705 mmHg 88%
08:00 +26°C° 0.3 mm 2 mps 705 mmHg 83%
09:00 +27°C° 0.3 mm 2 mps 706 mmHg 78%
10:00 +27°C° 1.6 mm 2 mps 706 mmHg 77%
11:00 +28°C° 1.6 mm 2 mps 705 mmHg 75%
12:00 +29°C° 1.6 mm 2 mps 705 mmHg 73%
13:00 +28°C° 1.9 mm 2 mps 705 mmHg 74%
14:00 +28°C° 1.9 mm 2 mps 704 mmHg 75%
15:00 +28°C° 1.9 mm 2 mps 703 mmHg 76%
16:00 +27°C° 1.2 mm 2 mps 703 mmHg 82%
17:00 +26°C° 1.2 mm 1 mps 703 mmHg 87%
18:00 +24°C° 1.2 mm 1 mps 703 mmHg 92%
19:00 +24°C° 0.2 mm 1 mps 704 mmHg 92%
20:00 +24°C° 0.2 mm 2 mps 704 mmHg 93%
21:00 +23°C° 0.2 mm 2 mps 704 mmHg 93%
22:00 +23°C° 0.6 mm 2 mps 704 mmHg 93%
23:00 +21°C° 0.6 mm 2 mps 704 mmHg 94%

9 December, Wednesday

Time Temperature Precipitation Wind Pressure Humidity
00:00 +21°C° 0.6 mm 2 mps 704 mmHg 94%
01:00 +21°C° 0.8 mm 2 mps 704 mmHg 95%
02:00 +21°C° 0.8 mm 2 mps 704 mmHg 96%
03:00 +21°C° 0.8 mm 2 mps 704 mmHg 96%
04:00 +22°C° 0.3 mm 1 mps 704 mmHg 96%
05:00 +22°C° 0.3 mm 1 mps 704 mmHg 96%
06:00 +22°C° 0.3 mm 1 mps 704 mmHg 96%
07:00 +23°C° 0.1 mm 1 mps 705 mmHg 93%
08:00 +24°C° 0.1 mm 1 mps 705 mmHg 90%
09:00 +25°C° 0.1 mm 1 mps 706 mmHg 87%
10:00 +26°C° 0.4 mm 1 mps 705 mmHg 82%
11:00 +27°C° 0.4 mm 1 mps 705 mmHg 77%
12:00 +28°C° 0.4 mm 2 mps 705 mmHg 72%
13:00 +28°C° 0.8 mm 2 mps 704 mmHg 72%
14:00 +29°C° 0.8 mm 2 mps 704 mmHg 72%
15:00 +29°C° 0.8 mm 2 mps 703 mmHg 71%
16:00 +28°C° 2.8 mm 2 mps 703 mmHg 77%
17:00 +27°C° 2.8 mm 2 mps 703 mmHg 82%
18:00 +26°C° 2.8 mm 2 mps 703 mmHg 87%
19:00 +25°C° 1.6 mm 2 mps 703 mmHg 88%
20:00 +24°C° 1.6 mm 3 mps 703 mmHg 88%
21:00 +24°C° 1.6 mm 3 mps 704 mmHg 89%
22:00 +24°C° 1.1 mm 3 mps 704 mmHg 90%
23:00 +22°C° 1.1 mm 3 mps 704 mmHg 91%
Show more